CW5456 Hansville WA US current weather conditions

sailwx.info

Last reported at 2014-May-31 21:31 UTC.
Time now 2015-May-27 17:52 UTC

Location: N 47°55' W 122°35'.
View on Google Maps.

See reports from other nearby stations

  
Tides and Currents Weather Stations Pressure Air Temp Water Temp Dewpoint Dewpoint Depression Visibility Wind Speed Wind Dir Waves Ship Positions
date/time (UTC)wind fromknots sea level pressurealtimeterstation pressurevisibilityair tempwater tempwave heightnotes
2015-May-27 16:49 344 6 gusting 6 11.7
2015-May-27 16:43 336 5 gusting 6 11.7
2015-May-27 16:39 344 3 gusting 7 11.7
2015-May-27 16:34 339 3 gusting 7 11.7
2015-May-27 16:28 339 7 gusting 7 11.7
2015-May-27 16:23 355 6 gusting 7 11.7
2015-May-27 16:18 355 5 gusting 8 11.7
2015-May-27 16:14 348 6 gusting 8 11.7
2015-May-27 16:09 346 6 gusting 8 11.7
2015-May-27 16:03 360 3 gusting 8 11.7
2015-May-27 15:58 347 5 gusting 10 11.7
2015-May-27 15:53 011 7 gusting 10 11.7
2015-May-27 15:49 005 8 gusting 10 11.7
2015-May-27 15:44 360 7 gusting 11 11.7
2015-May-27 15:38 355 7 gusting 11 11.7
2015-May-27 15:34 338 7 gusting 11 11.7
2015-May-27 15:29 344 8 gusting 11 11.7
2015-May-27 15:24 355 6 gusting 11 11.7
2015-May-27 15:19 351 5 gusting 10 11.7
2015-May-27 15:14 348 6 gusting 11 11.7
2015-May-27 15:08 339 6 gusting 12 11.7
2015-May-27 15:04 355 6 gusting 12 11.7
2015-May-27 14:59 005 7 gusting 12 11.7
2015-May-27 14:54 348 7 gusting 12 11.7
2015-May-27 14:49 350 7 gusting 11 11.7
2015-May-27 14:44 360 6 gusting 12 11.7
2015-May-27 14:39 340 10 gusting 12 11.7
2015-May-27 14:34 342 10 gusting 11 11.7
2015-May-27 14:29 323 7 gusting 11 11.7
2015-May-27 14:24 331 9 gusting 11 11.7
2015-May-27 14:19 355 6 gusting 10 11.7
2015-May-27 14:14 333 6 gusting 11 11.7
2015-May-27 14:09 360 6 gusting 11 11.7
2015-May-27 14:04 355 8 gusting 10 11.7
2015-May-27 13:59 344 8 gusting 10 11.7
2015-May-27 13:54 331 7 gusting 10 11.7
2015-May-27 13:39 340 5 gusting 9 11.7
2015-May-27 13:34 355 6 gusting 7 11.7
2015-May-27 13:29 342 3 gusting 7 11.7
2015-May-27 13:24 337 6 gusting 6 11.1
2015-May-27 13:19 344 2 gusting 6 11.1
2015-May-27 13:14 346 5 gusting 5 11.1
2015-May-27 13:09 346 1 gusting 5 11.1
2015-May-27 13:04 345 1 gusting 5 11.1
2015-May-27 12:59 345 1 gusting 3 11.1
2015-May-27 12:54 346 11.1
2015-May-27 12:49 346 2 gusting 5 11.1
2015-May-27 12:44 345 11.1
2015-May-27 12:39 345 0 gusting 3 11.1
2015-May-27 12:34 346 0 gusting 2 11.1
2015-May-27 12:29 345 0 gusting 5 11.1
2015-May-27 12:24 345 0 gusting 5 11.1
2015-May-27 12:19 333 1 gusting 5 11.1
2015-May-27 12:14 333 1 gusting 5 11.1
2015-May-27 12:09 333 11.1
2015-May-27 12:04 333 0 gusting 3 11.1
2015-May-27 11:59 333 1 gusting 6 11.1
2015-May-27 11:53 333 0 gusting 7 11.1
2015-May-27 11:48 331 2 gusting 7 11.1
2015-May-27 11:43 333 5 gusting 7 11.1
2015-May-27 11:38 340 2 gusting 7 11.1
2015-May-27 11:33 341 6 gusting 7 11.1
2015-May-27 11:28 342 6 gusting 8 11.1
2015-May-27 11:23 331 6 gusting 9 11.1
2015-May-27 11:18 346 6 gusting 9 11.1
2015-May-27 11:13 331 6 gusting 7 11.1
2015-May-27 11:08 331 3 gusting 7 11.1
2015-May-27 11:03 332 1 gusting 7 11.1
2015-May-27 10:58 329 3 gusting 7 11.1
2015-May-27 10:53 348 6 gusting 7 11.1
2015-May-27 10:48 325 6 gusting 6 11.1
2015-May-27 10:43 332 1 gusting 6 11.1
2015-May-27 10:38 331 3 gusting 6 11.7
2015-May-27 10:33 329 3 gusting 6 11.7
2015-May-27 10:28 333 2 gusting 5 11.7
2015-May-27 10:23 333 11.7
2015-May-27 10:18 331 0 gusting 2 11.7
2015-May-27 10:13 330 1 gusting 2 11.7
2015-May-27 10:08 331 11.7
2015-May-27 10:03 331 11.7
2015-May-27 09:58 331 11.7
2015-May-27 09:53 331 11.7
2015-May-27 09:48 331 11.7
2015-May-27 09:43 331 5 gusting 5 11.7
2015-May-27 09:38 331 11.7
2015-May-27 09:33 331 11.7
2015-May-27 09:28 331 11.7
2015-May-27 09:23 331 11.7
2015-May-27 09:18 331 11.7
2015-May-27 09:13 331 11.7
2015-May-27 09:08 331 11.7
2015-May-27 09:03 331 11.7
2015-May-27 08:58 329 1 gusting 5 11.7
2015-May-27 08:53 346 2 gusting 6 11.7
2015-May-27 08:48 349 3 gusting 6 11.7
2015-May-27 08:43 344 6 gusting 6 11.7
2015-May-27 08:38 333 5 gusting 6 11.7
2015-May-27 08:33 337 5 gusting 6 11.7
2015-May-27 08:28 333 3 gusting 5 12.2
2015-May-27 08:23 333 12.2
2015-May-27 08:18 333 3 gusting 5 12.2
2015-May-27 08:13 329 2 gusting 3 12.2
2015-May-27 08:08 355 12.2
2015-May-27 08:03 355 12.2
2015-May-27 07:58 355 12.2
2015-May-27 07:53 355 0 gusting 5 12.2
2015-May-27 07:48 355 1 gusting 5 12.2
2015-May-27 07:43 355 2 gusting 6 12.2
2015-May-27 07:38 355 3 gusting 6 12.2
2015-May-27 07:33 355 6 gusting 6 12.2
2015-May-27 07:28 342 3 gusting 5 12.2
2015-May-27 07:23 350 5 gusting 5 12.2
2015-May-27 07:18 350 3 gusting 3 12.2
2015-May-27 07:13 349 2 gusting 3 12.2
2015-May-27 07:08 355 2 gusting 3 12.2
2015-May-27 07:03 355 1 gusting 3 12.2
2015-May-27 06:58 355 2 gusting 5 12.2
2015-May-27 06:53 355 3 gusting 5 12.2
2015-May-27 06:48 355 3 gusting 6 12.2
2015-May-27 06:43 355 2 gusting 7 12.2
2015-May-27 06:38 005 6 gusting 8 12.2
2015-May-27 06:33 360 6 gusting 8 12.2
2015-May-27 06:28 005 6 gusting 8 12.2
2015-May-27 06:23 355 6 gusting 9 12.2
2015-May-27 06:18 346 7 gusting 9 12.2
2015-May-27 06:13 344 7 gusting 9 12.2
2015-May-27 06:08 355 6 gusting 9 12.2
2015-May-27 06:03 360 6 gusting 8 12.2
2015-May-27 05:58 323 6 gusting 8 12.8
2015-May-27 05:53 331 2 gusting 6 12.8
2015-May-27 05:48 346 12.8
2015-May-27 05:43 323 12.8
2015-May-27 05:38 331 5 gusting 7 12.8
2015-May-27 05:33 331 6 gusting 7 12.8
2015-May-27 05:28 327 6 gusting 7 12.8
2015-May-27 05:23 311 3 gusting 9 12.8
2015-May-27 05:18 351 6 gusting 9 12.8
2015-May-27 05:13 360 6 gusting 8 12.8
2015-May-27 05:08 009 6 gusting 8 12.8
2015-May-27 05:03 310 6 gusting 6 12.2
2015-May-27 04:58 355 2 gusting 6 12.2
2015-May-27 04:53 345 1 gusting 9 12.2
2015-May-27 04:48 325 12.2
2015-May-27 04:43 292 7 gusting 10 12.2
2015-May-27 04:38 333 6 gusting 9 12.8
2015-May-27 04:33 338 2 gusting 9 12.8
2015-May-27 04:28 317 2 gusting 9 12.8
2015-May-27 04:23 280 12.8
2015-May-27 04:18 340 6 gusting 7 12.8
2015-May-27 04:13 344 2 gusting 6 12.8
2015-May-27 04:08 338 2 gusting 9 13.3
2015-May-27 04:03 330 6 gusting 9 13.3
2015-May-27 03:58 319 8 gusting 8 13.9
2015-May-27 03:53 009 0 gusting 3 14.4
2015-May-27 03:48 010 14.4
2015-May-27 03:43 010 14.4
2015-May-27 03:38 010 0 gusting 3 14.4
2015-May-27 03:33 306 2 gusting 2 14.4
2015-May-27 03:28 306 14.4
2015-May-27 03:23 306 14.4
2015-May-27 03:13 306 2 gusting 3 14.4
2015-May-27 03:08 288 0 gusting 2 14.4
2015-May-27 02:18 336 6 gusting 7 14.4
2015-May-27 02:13 335 3 gusting 3 14.4
2015-May-27 02:08 333 2 gusting 3 14.4
2015-May-27 02:03 335 1 gusting 7 14.4
2015-May-27 01:58 012 1 gusting 7 14.4
2015-May-27 01:53 328 3 gusting 6 14.4
2015-May-27 01:48 340 1 gusting 5 14.4
2015-May-27 01:28 311 3 gusting 7 14.4
2015-May-27 01:23 334 6 gusting 7 15.0
2015-May-27 01:18 337 3 gusting 5 15.6
2015-May-27 01:13 005 2 gusting 3 16.1
2015-May-27 01:08 034 1 gusting 3 16.7
2015-May-27 01:03 035 1 gusting 3 16.7
2015-May-27 00:58 329 0 gusting 1 16.7
2015-May-27 00:53 329 16.1
2015-May-27 00:48 329 16.1
2015-May-27 00:43 329 16.1
2015-May-27 00:38 329 1 gusting 3 16.1
2015-May-27 00:33 329 2 gusting 2 16.1
2015-May-27 00:28 329 15.6
2015-May-27 00:23 329 15.6
2015-May-27 00:18 310 1 gusting 7 15.0
2015-May-27 00:13 335 6 gusting 6 15.0
2015-May-27 00:08 311 3 gusting 6 15.0
2015-May-27 00:03 330 3 gusting 5 15.6
2015-May-26 23:58 326 2 gusting 2 15.6
2015-May-26 23:53 327 1 gusting 2 15.6
2015-May-26 23:48 327 0 gusting 3 15.6
2015-May-26 23:43 326 0 gusting 3 15.6
2015-May-26 23:38 314 1 gusting 3 15.6
2015-May-26 23:33 284 15.6
2015-May-26 23:28 335 15.6
2015-May-26 23:23 335 1 gusting 1 15.6
2015-May-26 23:18 334 15.0
2015-May-26 23:13 334 15.0
2015-May-26 23:08 334 0 gusting 2 15.0
2015-May-26 23:03 334 15.0
2015-May-26 22:58 334 0 gusting 2 15.0
2015-May-26 22:53 334 2 gusting 5 14.4
2015-May-26 22:48 334 2 gusting 6 14.4
2015-May-26 22:43 332 2 gusting 6 14.4
2015-May-26 22:38 349 3 gusting 6 14.4
2015-May-26 22:33 005 3 gusting 6 14.4
2015-May-26 22:28 336 2 gusting 5 14.4
2015-May-26 22:23 348 3 gusting 5 14.4
2015-May-26 22:18 346 1 gusting 5 14.4
2015-May-26 22:13 009 3 gusting 5 14.4
2015-May-26 22:08 346 2 gusting 5 14.4
2015-May-26 22:03 346 1 gusting 5 13.9
2015-May-26 21:58 349 3 gusting 5 13.9
2015-May-26 21:53 348 3 gusting 6 13.9
2015-May-26 21:48 342 5 gusting 6 13.9
2015-May-26 21:43 343 3 gusting 6 13.9
2015-May-26 21:38 331 3 gusting 6 13.3
2015-May-26 21:33 333 3 gusting 7 13.3
2015-May-26 21:28 331 6 gusting 7 13.3
2015-May-26 21:23 349 2 gusting 6 13.9
2015-May-26 21:18 342 2 gusting 5 13.9
2015-May-26 21:13 343 1 gusting 6 13.9
2015-May-26 21:08 355 3 gusting 6 13.9
2015-May-26 21:03 333 1 gusting 2 13.9
2015-May-26 20:58 331 1 gusting 3 13.9
2015-May-26 20:53 330 1 gusting 6 13.3
2015-May-26 20:48 324 2 gusting 6 13.3
2015-May-26 20:43 351 2 gusting 5 13.3
2015-May-26 20:38 351 5 gusting 5 13.3
2015-May-26 20:33 350 3 gusting 5 13.3
2015-May-26 20:29 350 0 gusting 5 13.3
2015-May-26 20:23 350 3 gusting 6 13.3
2015-May-26 20:18 350 2 gusting 6 13.3
2015-May-26 20:13 349 5 gusting 5 13.3
2015-May-26 20:08 349 1 gusting 6 13.3
2015-May-26 20:03 348 2 gusting 6 13.3
2015-May-26 19:58 349 3 gusting 6 13.3
2015-May-26 19:53 348 2 gusting 3 13.9
2015-May-26 19:48 348 2 gusting 3 13.9
2015-May-26 19:44 347 1 gusting 3 13.9
2015-May-26 19:38 348 1 gusting 2 13.9
2015-May-26 19:33 347 1 gusting 5 13.9
2015-May-26 19:29 346 1 gusting 5 13.9
2015-May-26 19:23 346 3 gusting 3 13.9
2015-May-26 19:18 345 13.3
2015-May-26 19:13 345 1 gusting 3 13.3
2015-May-26 19:08 346 1 gusting 6 13.3
2015-May-26 19:04 346 1 gusting 6 13.3
2015-May-26 18:59 330 2 gusting 6 13.3
2015-May-26 18:53 331 3 gusting 6 12.8
2015-May-26 18:49 331 3 gusting 5 12.8
2015-May-26 18:44 339 1 gusting 3 13.3
2015-May-26 18:39 338 1 gusting 6 13.3
2015-May-26 18:34 338 1 gusting 6 12.8
2015-May-26 18:28 339 6 gusting 6 12.8
2015-May-26 18:24 355 5 gusting 6 12.8
2015-May-26 18:19 337 3 gusting 5 12.8
2015-May-26 18:14 338 2 gusting 6 12.8
2015-May-26 18:09 337 3 gusting 6 13.3
2015-May-26 18:04 336 2 gusting 3 13.3
2015-May-26 17:58 336 2 gusting 3 13.3
2015-May-26 17:54 336 2 gusting 3 13.3
2015-May-26 17:48 336 2 gusting 3 13.3
2015-May-26 17:44 336 1 gusting 2 13.3
2015-May-26 17:39 336 0 gusting 3 12.8
2015-May-26 17:34 336 0 gusting 5 12.8
2015-May-26 17:28 336 2 gusting 6 12.8
2015-May-26 17:24 336 3 gusting 6 12.8
2015-May-26 17:19 336 5 gusting 6 12.2
2015-May-26 17:13 337 3 gusting 6 12.2
2015-May-26 17:08 334 5 gusting 6 12.2
2015-May-26 17:04 350 2 gusting 5 12.2
2015-May-26 16:59 350 1 gusting 6 12.2
2015-May-26 16:54 350 5 gusting 6 12.2
2015-May-26 16:49 350 2 gusting 5 12.2
2015-May-26 16:44 346 5 gusting 6 12.2
2015-May-26 16:39 342 3 gusting 6 12.2
2015-May-26 16:34 325 3 gusting 5 12.2
2015-May-26 16:29 319 2 gusting 5 12.2
2015-May-26 16:24 319 3 gusting 3 12.2
2015-May-26 16:19 319 1 gusting 3 12.2
2015-May-26 16:14 319 3 gusting 3 12.2
2015-May-26 16:09 319 1 gusting 3 12.2
2015-May-26 16:04 319 2 gusting 2 12.2
2015-May-26 15:59 319 12.2
2015-May-26 15:54 319 12.2
2015-May-26 15:49 319 1 gusting 3 12.2
2015-May-26 15:44 319 2 gusting 5 12.2
2015-May-26 15:39 319 2 gusting 5 12.2
2015-May-26 15:34 244 1 gusting 2 12.2
2015-May-26 15:29 244 0 gusting 2 12.2
2015-May-26 15:24 243 0 gusting 2 12.2
2015-May-26 15:19 329 0 gusting 2 12.2
2015-May-26 15:14 329 12.2
2015-May-26 15:09 329 12.2
2015-May-26 15:04 329 0 gusting 2 12.2
2015-May-26 14:59 329 1 gusting 2 12.2
2015-May-26 14:54 329 1 gusting 1 12.2
2015-May-26 14:49 329 12.2
2015-May-26 14:44 329 12.2
2015-May-26 14:39 329 12.2
2015-May-26 14:34 329 12.2
2015-May-26 14:29 329 0 gusting 1 12.2
2015-May-26 14:24 329 1 gusting 1 12.2
2015-May-26 14:19 329 12.2
2015-May-26 14:14 329 1 gusting 2 12.2
2015-May-26 14:09 329 12.2
2015-May-26 14:04 329 11.7
2015-May-26 13:59 329 11.7
2015-May-26 13:54 329 0 gusting 0 11.7
2015-May-26 13:49 329 11.7
2015-May-26 13:44 329 11.7
2015-May-26 13:39 329 1 gusting 2 11.7
2015-May-26 13:34 329 2 gusting 5 11.7
2015-May-26 13:29 329 2 gusting 5 11.7
2015-May-26 13:24 329 3 gusting 3 11.7
2015-May-26 13:18 329 2 gusting 3 11.7
2015-May-26 13:13 329 2 gusting 2 11.7
2015-May-26 13:08 329 1 gusting 2 11.7
2015-May-26 13:03 329 12.2
2015-May-26 12:58 329 0 gusting 0 12.2
2015-May-26 12:53 329 12.2
2015-May-26 12:48 329 12.2
2015-May-26 12:43 329 12.2
2015-May-26 12:38 329 11.7
2015-May-26 12:33 329 11.7
2015-May-26 12:28 329 11.7
2015-May-26 12:23 329 11.7
2015-May-26 12:18 329 11.7
2015-May-26 12:13 329 11.7
2015-May-26 12:08 329 11.7
2015-May-26 12:03 329 0 gusting 3 11.7
2015-May-26 11:58 329 11.7
2015-May-26 11:53 329 11.7
2015-May-26 11:48 329 12.2
2015-May-26 11:43 329 12.2
2015-May-26 11:38 329 12.2
2015-May-26 11:33 329 1 gusting 2 12.2
2015-May-26 11:28 329 0 gusting 1 12.2
2015-May-26 11:23 329 0 gusting 1 12.2
2015-May-26 11:18 329 1 gusting 1 12.2
2015-May-26 11:13 329 12.2
2015-May-26 11:08 329 12.2
2015-May-26 11:03 329 12.2
2015-May-26 10:58 329 12.2
2015-May-26 10:53 329 12.2
2015-May-26 10:48 329 12.2
2015-May-26 10:43 329 1 gusting 1 12.2
2015-May-26 10:38 329 1 gusting 1 12.2
2015-May-26 10:33 329 0 gusting 1 12.2
2015-May-26 10:28 329 12.2
2015-May-26 10:23 329 12.2
2015-May-26 10:18 329 2 gusting 2 12.2
2015-May-26 10:13 329 12.2
2015-May-26 10:08 329 12.2
2015-May-26 10:03 329 1 gusting 6 12.2
2015-May-26 09:58 329 5 gusting 6 12.2
2015-May-26 09:53 334 6 gusting 6 12.2
2015-May-26 09:48 334 6 gusting 6 12.2
2015-May-26 09:43 334 5 gusting 6 12.2
2015-May-26 09:38 340 5 gusting 6 12.2
2015-May-26 09:33 340 2 gusting 6 12.2
2015-May-26 09:28 340 3 gusting 6 12.2
2015-May-26 09:23 330 5 gusting 6 12.2
2015-May-26 09:18 319 12.2
2015-May-26 09:13 319 2 gusting 2 12.2
2015-May-26 09:08 320 1 gusting 2 12.2
2015-May-26 09:03 320 2 gusting 3 12.2
2015-May-26 08:58 320 12.2
2015-May-26 08:53 320 2 gusting 5 12.2
2015-May-26 08:48 320 3 gusting 5 12.2
2015-May-26 08:43 320 2 gusting 5 12.2
2015-May-26 08:38 333 3 gusting 5 12.2
2015-May-26 08:33 336 3 gusting 5 12.2
2015-May-26 08:28 336 2 gusting 5 12.2
2015-May-26 08:23 336 1 gusting 5 12.2
2015-May-26 08:18 336 2 gusting 5 12.2
2015-May-26 08:13 336 12.2
2015-May-26 08:08 336 0 gusting 3 12.2
2015-May-26 08:03 336 3 gusting 3 12.2
2015-May-26 07:58 336 12.2
2015-May-26 07:53 336 12.2
2015-May-26 07:48 336 1 gusting 2 12.2
2015-May-26 07:43 336 1 gusting 2 12.2
2015-May-26 07:38 336 1 gusting 2 12.2
2015-May-26 07:33 336 2 gusting 2 12.2
2015-May-26 07:28 336 12.2
2015-May-26 07:23 336 12.8
2015-May-26 07:18 336 12.8
2015-May-26 07:13 336 0 gusting 5 12.8
2015-May-26 07:08 336 3 gusting 5 12.8
2015-May-26 07:03 336 13.3
2015-May-26 06:58 334 1 gusting 5 13.3
2015-May-26 06:53 334 0 gusting 2 13.3
2015-May-26 06:48 330 13.9
2015-May-26 06:43 331 2 gusting 2 13.9
2015-May-26 06:38 209 13.9
2015-May-26 06:33 209 13.9
2015-May-26 06:28 209 13.9
2015-May-26 06:23 209 13.9
2015-May-26 06:18 209 13.9
2015-May-26 06:13 209 13.9
2015-May-26 06:08 209 14.4
2015-May-26 06:03 209 0 gusting 2 14.4
2015-May-26 05:58 209 14.4
2015-May-26 05:53 209 1 gusting 3 14.4
2015-May-26 05:48 213 1 gusting 5 14.4
2015-May-26 05:43 194 14.4
2015-May-26 05:38 217 0 gusting 3 14.4
2015-May-26 05:33 168 0 gusting 2 14.4
2015-May-26 05:28 167 14.4
2015-May-26 05:23 167 14.4
2015-May-26 05:18 167 14.4
2015-May-26 05:14 167 1 gusting 2 14.4
2015-May-26 05:08 167 14.4
2015-May-26 05:03 167 1 gusting 1 14.4
2015-May-26 04:58 168 14.4
2015-May-26 04:53 168 14.4
2015-May-26 04:48 168 14.4
2015-May-26 04:43 168 14.4
2015-May-26 04:39 165 1 gusting 3 14.4
2015-May-26 04:34 145 14.4
2015-May-26 04:28 182 2 gusting 3 14.4
2015-May-26 04:23 200 14.4
2015-May-26 04:18 203 1 gusting 3 15.0
2015-May-26 04:13 209 15.0
2015-May-26 04:08 221 2 gusting 3 15.0
2015-May-26 04:03 192 0 gusting 5 15.0
2015-May-26 03:58 210 0 gusting 5 15.0
2015-May-26 03:53 169 1 gusting 6 15.0
2015-May-26 03:48 191 1 gusting 6 15.0
2015-May-26 03:43 198 3 gusting 5 15.0
2015-May-26 03:38 180 1 gusting 5 15.0
2015-May-26 03:34 172 0 gusting 3 15.0
2015-May-26 03:28 153 15.0
2015-May-26 03:24 153 0 gusting 3 15.6
2015-May-26 03:19 153 0 gusting 3 15.6
2015-May-26 03:13 153 15.6
2015-May-26 03:09 170 15.6
2015-May-26 03:04 175 15.6
2015-May-26 02:58 202 0 gusting 2 15.6
2015-May-26 02:54 202 2 gusting 3 15.6
2015-May-26 02:48 175 1 gusting 3 15.6
2015-May-26 02:43 183 15.6
2015-May-26 02:38 152 0 gusting 6 15.6
2015-May-26 02:34 138 2 gusting 3 15.6
2015-May-26 02:28 138 16.1
2015-May-26 02:24 138 1 gusting 3 16.1
2015-May-26 02:18 138 16.1
2015-May-26 02:14 155 0 gusting 3 16.1
2015-May-26 02:09 152 16.1
2015-May-26 02:04 179 1 gusting 5 16.1
2015-May-26 01:58 203 3 gusting 6 16.1
2015-May-26 01:53 164 16.1
2015-May-26 01:49 210 6 gusting 6 16.1
2015-May-26 01:43 178 16.1
2015-May-26 01:39 198 16.1
2015-May-26 01:34 163 0 gusting 6 16.1
2015-May-26 01:29 179 2 gusting 7 16.1
2015-May-26 01:24 183 2 gusting 7 16.1
2015-May-26 01:19 207 16.1
2015-May-26 01:14 205 3 gusting 6 16.1
2015-May-26 01:08 150 3 gusting 6 16.1
2015-May-26 01:04 133 5 gusting 5 16.1
2015-May-26 00:59 111 16.7
2015-May-26 00:54 127 0 gusting 6 16.7
2015-May-26 00:49 207 16.7
2015-May-26 00:44 126 5 gusting 7 16.7
2015-May-26 00:39 125 1 gusting 5 16.7
2015-May-26 00:34 138 0 gusting 9 16.7
2015-May-26 00:29 165 1 gusting 9 16.7
2015-May-26 00:24 119 1 gusting 8 16.7
2015-May-26 00:19 137 7 gusting 8 16.7
2015-May-26 00:14 110 1 gusting 7 16.7
2015-May-26 00:09 132 7 gusting 7 16.7
2015-May-26 00:04 133 16.7
2015-May-25 23:59 111 6 gusting 11 16.7
2015-May-25 23:54 081 1 gusting 11 16.7
2015-May-25 23:49 110 5 gusting 10 16.7
2015-May-25 23:44 145 7 gusting 9 17.2
2015-May-25 23:39 138 3 gusting 8 17.2
2015-May-25 23:34 130 0 gusting 8 17.2
2015-May-25 23:29 083 0 gusting 7 17.2
2015-May-25 23:24 121 17.2
2015-May-25 23:19 144 0 gusting 9 17.2
2015-May-25 23:14 163 5 gusting 7 17.2
2015-May-25 23:09 090 2 gusting 7 17.2
2015-May-25 23:04 119 3 gusting 7 17.2
2015-May-25 22:59 177 1 gusting 6 17.2
2015-May-25 22:54 147 3 gusting 6 17.2
2015-May-25 22:49 019 3 gusting 7 17.2
2015-May-25 22:44 124 16.7
2015-May-25 22:39 140 3 gusting 7 16.7
2015-May-25 22:34 221 16.7
2015-May-25 22:29 087 16.7
2015-May-25 22:24 055 16.7
2015-May-25 22:19 064 2 gusting 5 16.7
2015-May-25 22:14 196 2 gusting 6 16.7
2015-May-25 22:09 215 0 gusting 6 16.7
2015-May-25 22:04 065 0 gusting 12 16.7
2015-May-25 21:59 088 1 gusting 12 16.7
2015-May-25 21:54 005 3 gusting 6 16.7
2015-May-25 21:49 083 1 gusting 6 16.7
2015-May-25 21:44 175 6 gusting 6 16.7
2015-May-25 21:39 160 0 gusting 3 16.7
2015-May-25 21:34 271 2 gusting 5 16.7
2015-May-25 21:29 111 0 gusting 6 16.7
2015-May-25 21:24 344 16.7
2015-May-25 21:19 148 6 gusting 9 16.7
2015-May-25 21:14 184 1 gusting 9 16.7
2015-May-25 21:09 114 5 gusting 9 17.2
2015-May-25 21:03 143 6 gusting 7 17.2
2015-May-25 20:58 161 5 gusting 7 17.2
2015-May-25 20:53 147 5 gusting 7 16.7
2015-May-25 20:48 123 3 gusting 10 16.7
2015-May-25 20:43 119 5 gusting 10 16.7
2015-May-25 20:38 217 16.1
2015-May-25 20:33 191 16.1
2015-May-25 20:28 124 9 gusting 9 16.1
2015-May-25 20:23 143 2 gusting 6 16.1
2015-May-25 20:18 229 15.6
2015-May-25 20:03 056 15.6
2015-May-25 19:58 072 1 gusting 6 15.6
2015-May-25 19:53 137 15.6
2015-May-25 19:48 118 15.6
2015-May-25 19:43 148 15.0
2015-May-25 19:38 211 1 gusting 3 15.0
2015-May-25 19:33 205 15.0
2015-May-25 19:28 111 15.0
2015-May-25 19:23 134 1 gusting 9 15.0
2015-May-25 19:19 180 6 gusting 9 15.0
2015-May-25 19:13 179 6 gusting 8 15.0
2015-May-25 19:09 176 3 gusting 8 15.0
2015-May-25 19:03 134 2 gusting 7 15.0
2015-May-25 18:58 123 1 gusting 7 14.4
2015-May-25 18:53 116 6 gusting 7 14.4
2015-May-25 18:48 114 1 gusting 6 15.0
2015-May-25 18:43 160 5 gusting 6 15.0
2015-May-25 18:38 135 2 gusting 7 14.4
2015-May-25 18:33 165 14.4
2015-May-25 18:28 129 5 gusting 6 14.4
2015-May-25 18:23 178 0 gusting 8 14.4
2015-May-25 18:18 137 14.4
2015-May-25 18:13 102 14.4
2015-May-25 18:08 163 3 gusting 12 14.4
2015-May-25 18:03 196 3 gusting 6 14.4
2015-May-25 17:58 171 0 gusting 5 14.4
2015-May-25 17:53 165 14.4
2015-May-25 17:48 161 14.4
2015-May-25 17:43 171 0 gusting 8 14.4
2015-May-25 17:38 225 6 gusting 8 13.9
2015-May-25 17:33 132 2 gusting 9 13.9
2015-May-25 17:28 188 6 gusting 9 13.9
2015-May-25 17:24 229 13.9
2015-May-25 17:19 137 3 gusting 8 13.9
2015-May-25 17:14 160 0 gusting 8 13.9
2015-May-25 17:09 182 6 gusting 8 14.4
2015-May-25 17:03 154 0 gusting 6 14.4